Date String (YYYY-MM-DD hh:mm:ss) UTC,Instrument flags,Ambient pressure (hPa),Sample flow (lpm),Bypass flow (lpm),Sample temperature (°C),Ambient temperature (°C),ASC tube jacket temperature (°C),LED temperature (°C),Box temperature (°C),Sample RH (%),Span deviation,Mass concentration (μg/m³),Mass concentration (μg/m³),Mass concentration (μg/m³)
DateTimeUTC,F1_M11,P_M11,Q1_M11,Q2_M11,T1_M11,T2_M11,T3_M11,T4_M11,T5_M11,U1_M11,ZSPAN_M11,X0_M11,X2_M11,X1_M11
2022-05-11 16:00:00,,0822.6,4.99,0.00,28.9,28.2,00.0,37.7,30.8,15.9,0000.0,0025.23,0006.25,0003.01
2022-05-11 16:01:00,,0822.6,4.99,0.00,29.0,28.2,00.0,37.7,30.8,15.5,0000.0,0024.46,0006.22,0003.01
2022-05-11 16:02:00,,0822.6,5.01,0.00,29.0,28.2,00.0,37.8,30.8,15.3,0000.0,0023.84,0006.20,0003.01
2022-05-11 16:03:00,,0822.6,5.00,0.00,29.0,28.2,00.0,37.8,30.8,14.9,0000.0,0023.78,0006.22,0003.02
2022-05-11 16:04:00,,0822.6,5.00,0.00,29.0,28.2,00.0,37.8,30.8,15.2,0000.0,0024.11,0006.21,0003.02
2022-05-11 16:05:00,,0822.6,4.98,0.00,29.0,28.2,00.0,37.8,30.8,15.4,0000.0,0023.66,0006.19,0003.04
2022-05-11 16:06:00,,0822.6,5.00,0.00,29.0,28.3,00.0,37.8,30.9,14.7,0000.0,0023.37,0006.12,0003.04
2022-05-11 16:07:00,,0822.5,5.00,0.00,29.1,28.3,00.0,37.8,30.9,14.7,0000.0,0022.95,0006.12,0003.02
2022-05-11 16:08:00,,0822.5,5.00,0.00,29.1,28.3,00.0,37.9,30.9,14.7,0000.0,0023.07,0006.19,0003.05
2022-05-11 16:09:00,,0822.5,5.00,0.00,29.1,28.3,00.0,37.9,30.9,14.9,0000.0,0022.89,0006.25,0003.04
2022-05-11 16:10:00,,0822.5,5.00,0.00,29.1,28.3,00.0,37.9,30.9,15.2,0000.0,0021.08,0006.30,0003.07
2022-05-11 16:11:00,,0822.5,5.00,0.00,29.1,28.3,00.0,37.9,31.0,15.6,0000.0,0021.00,0006.33,0003.09
2022-05-11 16:12:00,,0822.5,4.99,0.00,29.2,28.4,00.0,37.9,31.0,15.5,0000.0,0020.70,0006.25,0003.06
2022-05-11 16:13:00,,0822.5,5.01,0.00,29.2,28.4,00.0,38.0,31.0,14.9,0000.0,0020.54,0006.25,0003.06
2022-05-11 16:14:00,,0822.5,5.01,0.00,29.2,28.4,00.0,38.0,31.0,15.3,0000.0,0020.59,0006.22,0003.06
2022-05-11 16:15:00,,0822.5,5.00,0.00,29.2,28.5,00.0,38.0,31.1,14.7,0000.0,0020.66,0006.22,0003.08
2022-05-11 16:16:00,,0822.6,5.00,0.00,29.3,28.5,00.0,38.0,31.1,15.1,0000.0,0020.94,0006.29,0003.07
2022-05-11 16:17:00,,0822.5,4.99,0.00,29.3,28.5,00.0,38.0,31.1,14.7,0000.0,0020.76,0006.30,0003.07
2022-05-11 16:18:00,,0822.5,5.00,0.00,29.3,28.5,00.0,38.1,31.1,14.4,0000.0,0022.44,0006.29,0003.08
2022-05-11 16:19:00,,0822.5,5.01,0.00,29.3,28.5,00.0,38.1,31.1,15.0,0000.0,0023.29,0006.31,0003.07
2022-05-11 16:20:00,,0822.5,5.00,0.00,29.3,28.5,00.0,38.1,31.2,14.6,0000.0,0023.74,0006.23,0003.06
2022-05-11 16:21:00,,0822.5,5.00,0.00,29.4,28.5,00.0,38.1,31.2,14.9,0000.0,0024.45,0006.18,0003.06
2022-05-11 16:22:00,,0822.4,5.00,0.00,29.4,28.6,00.0,38.1,31.2,14.9,0000.0,0024.52,0006.11,0003.05
2022-05-11 16:23:00,,0822.5,5.00,0.00,29.4,28.6,00.0,38.2,31.2,15.8,0000.0,0024.96,0006.16,0003.06
2022-05-11 16:24:00,,0822.5,4.99,0.00,29.4,28.6,00.0,38.2,31.2,15.9,0000.0,0026.23,0006.13,0003.06
2022-05-11 16:25:00,,0822.6,5.00,0.00,29.4,28.6,00.0,38.2,31.2,15.1,0000.0,0026.88,0006.10,0003.07
2022-05-11 16:26:00,,0822.5,5.00,0.00,29.4,28.6,00.0,38.2,31.2,14.5,0000.0,0027.17,0006.10,0003.05
2022-05-11 16:27:00,,0822.5,5.00,0.00,29.4,28.6,00.0,38.2,31.2,15.3,0000.0,0027.58,0006.06,0003.03
2022-05-11 16:28:00,,0822.5,5.00,0.00,29.5,28.6,00.0,38.2,31.2,15.6,0000.0,0027.90,0006.04,0003.03
2022-05-11 16:29:00,,0822.5,5.00,0.00,29.5,28.7,00.0,38.3,31.3,15.0,0000.0,0027.22,0006.00,0003.07
2022-05-11 16:30:00,,0822.4,5.02,0.00,29.5,28.7,00.0,38.3,31.3,15.0,0000.0,0026.82,0006.00,0003.09
2022-05-11 16:31:00,,0822.5,4.98,0.00,29.5,28.7,00.0,38.3,31.3,15.0,0000.0,0026.31,0006.08,0003.12
2022-05-11 16:32:00,,0822.5,5.00,0.00,29.5,28.7,00.0,38.3,31.3,15.2,0000.0,0025.66,0006.08,0003.12
2022-05-11 16:33:00,,0822.5,5.00,0.00,29.5,28.7,00.0,38.3,31.3,15.2,0000.0,0025.64,0006.08,0003.12
2022-05-11 16:34:00,,0822.4,5.00,0.00,29.6,28.8,00.0,38.3,31.4,15.2,0000.0,0025.87,0006.13,0003.13
2022-05-11 16:35:00,,0822.5,4.98,0.00,29.6,28.8,00.0,38.4,31.4,15.3,0000.0,0025.30,0006.22,0003.15
2022-05-11 16:36:00,,0822.4,5.01,0.00,29.6,28.8,00.0,38.4,31.4,14.9,0000.0,0024.22,0006.26,0003.15
2022-05-11 16:37:00,,0822.4,5.01,0.00,29.6,28.8,00.0,38.4,31.4,14.6,0000.0,0023.73,0006.27,0003.15
2022-05-11 16:38:00,,0822.4,5.00,0.00,29.6,28.8,00.0,38.4,31.4,14.7,0000.0,0022.90,0006.28,0003.17
2022-05-11 16:39:00,,0822.4,5.00,0.00,29.7,28.9,00.0,38.4,31.4,15.5,0000.0,0023.92,0006.41,0003.18
2022-05-11 16:40:00,,0822.4,5.00,0.00,29.7,28.9,00.0,38.5,31.4,15.4,0000.0,0024.63,0006.45,0003.17
2022-05-11 16:41:00,,0822.4,5.00,0.00,29.7,28.9,00.0,38.5,31.5,14.6,0000.0,0024.06,0006.39,0003.16
2022-05-11 16:42:00,,0822.4,5.01,0.00,29.7,28.9,00.0,38.5,31.5,15.2,0000.0,0024.45,0006.38,0003.15
2022-05-11 16:43:00,,0822.3,5.00,0.00,29.7,28.9,00.0,38.5,31.5,14.9,0000.0,0024.74,0006.36,0003.13
2022-05-11 16:44:00,,0822.3,5.01,0.00,29.7,28.9,00.0,38.5,31.5,15.1,0000.0,0025.56,0006.44,0003.13
2022-05-11 16:45:00,,0822.3,4.99,0.00,29.8,29.0,00.0,38.5,31.6,14.7,0000.0,0026.63,0006.38,0003.11
2022-05-11 16:46:00,,0822.3,5.01,0.00,29.8,29.0,00.0,38.6,31.6,14.0,0000.0,0026.61,0006.34,0003.07
2022-05-11 16:47:00,,0822.4,4.99,0.00,29.8,29.0,00.0,38.6,31.6,13.9,0000.0,0027.60,0006.40,0003.07
2022-05-11 16:48:00,,0822.4,5.01,0.00,29.8,29.0,00.0,38.6,31.6,14.0,0000.0,0028.20,0006.36,0003.07
2022-05-11 16:49:00,,0822.4,4.99,0.00,29.8,29.0,00.0,38.6,31.6,14.1,0000.0,0028.72,0006.40,0003.05
2022-05-11 16:50:00,,0822.4,4.99,0.00,29.9,29.1,00.0,38.6,31.7,14.2,0000.0,0027.43,0006.33,0003.02
2022-05-11 16:51:00,,0822.4,5.00,0.00,29.9,29.1,00.0,38.7,31.7,14.3,0000.0,0026.36,0006.34,0002.98
2022-05-11 16:52:00,,0822.4,5.00,0.00,29.9,29.1,00.0,38.7,31.7,14.3,0000.0,0025.30,0006.41,0002.99
2022-05-11 16:53:00,,0822.3,5.00,0.00,29.9,29.1,00.0,38.7,31.7,14.4,0000.0,0024.63,0006.43,0002.98
2022-05-11 16:54:00,,0822.3,5.00,0.00,30.0,29.2,00.0,38.7,31.7,14.8,0000.0,0023.73,0006.41,0003.01
2022-05-11 16:55:00,,0822.3,5.00,0.00,30.0,29.2,00.0,38.7,31.8,14.9,0000.0,0023.46,0006.29,0003.01
2022-05-11 16:56:00,,0822.3,5.00,0.00,30.0,29.2,00.0,38.8,31.8,14.4,0000.0,0023.05,0006.29,0003.05
2022-05-11 16:57:00,,0822.4,5.01,0.00,30.0,29.2,00.0,38.8,31.8,14.9,0000.0,0023.48,0006.29,0003.07
2022-05-11 16:58:00,,0822.3,5.00,0.00,30.0,29.2,00.0,38.8,31.8,14.4,0000.0,0023.19,0006.30,0003.09
2022-05-11 16:59:00,,0822.3,5.00,0.00,30.1,29.3,00.0,38.8,31.9,14.5,0000.0,0022.84,0006.29,0003.09
